Paso Robles, CA

9:15 AM PST on December 12, 2019 (GMT -0800)
Paso Robles Municipal

Weather History for KPRB - October, 2019

Change the Weather History Date:

Tuesday, October 15, 2019

  Actual Average Record
Temperature  
Mean Temperature 62 °F 62 °F  
Max Temperature 89 °F 80 °F 100 °F (1961)
Min Temperature 37 °F 45 °F 34 °F (1966)
Degree Days  
Heating Degree Days 2 4  
Month to date heating degree days 44  
Since 1 July heating degree days 76  
Cooling Degree Days 0 1  
Month to date cooling degree days 29  
Year to date cooling degree days 920  
Growing Degree Days 12 (Base 50)    
Moisture  
Dew Point 35 °F    
Average Humidity 53    
Maximum Humidity 97    
Minimum Humidity 12    
Precipitation  
Precipitation 0.00 in 0.02 in 0.96 in (1972)
Month to date precipitation 0.21  
Year to date precipitation 9.33  
Sea Level Pressure  
Sea Level Pressure 30.03 in    
Wind  
Wind Speed 1 mph ()    
Max Wind Speed 8 mph    
Max Gust Speed -    
Visibility 9.7 miles    
Events      
T = Trace of Precipitation, MM = Missing Value Source: Averaged Metar Reports

Daily Weather History Graph

Daily Weather History Graph

Search for Another Location

Airport or City:

Astronomy

Oct. 15, 2019 Rise Set
Actual Time 7:08 AM PDT 6:27 PM PDT
Civil Twilight 6:43 AM PDT 6:52 PM PDT
Nautical Twilight 6:13 AM PDT 7:22 PM PDT
Astronomical Twilight 5:43 AM PDT 7:51 PM PDT
Moon 7:52 PM PDT (10/15) 8:42 AM PDT (10/15)
Length of Visible Light 12h 09m
Length of Day
11h 18m
Waning Gibbous, 97% of the Moon is Illuminated
Oct 15
Waning Gibbous
Oct 21
Last Quarter
Oct 27
New
Nov 4
First Quarter
Nov 12
Full

Hourly Weather History & Observations

Time (PDT) Temp. Windchill Dew Point Humidity Pressure Visibility Wind Dir Wind Speed Gust Speed Precip Events Conditions
12:53 AM 48.0 °F - 41.0 °F 77% 30.03 in 10.0 mi Calm Calm - N/A   Clear
1:53 AM 45.0 °F - 37.9 °F 76% 30.04 in 10.0 mi Calm Calm - N/A   Clear
2:53 AM 42.1 °F - 35.1 °F 76% 30.03 in 10.0 mi Calm Calm - N/A   Clear
3:53 AM 39.9 °F 36.7 °F 33.1 °F 77% 30.03 in 10.0 mi ESE 4.6 mph - N/A   Clear
4:53 AM 41.0 °F - 36.0 °F 82% 30.04 in 10.0 mi Calm Calm - N/A   Scattered Clouds
5:03 AM 41.0 °F - 35.1 °F 79% 30.05 in 10.0 mi Calm Calm - N/A   Mostly Cloudy
5:26 AM 39.0 °F - 37.0 °F 93% 30.06 in 2.5 mi Calm Calm - N/A   Scattered Clouds
5:34 AM 37.9 °F - 37.0 °F 97% 30.06 in 9.0 mi Calm Calm - N/A   Partly Cloudy
5:53 AM 37.9 °F - 34.0 °F 86% 30.06 in 10.0 mi Calm Calm - N/A   Clear
6:53 AM 39.0 °F - 36.0 °F 89% 30.07 in 10.0 mi Calm Calm - N/A   Clear
7:53 AM 39.0 °F - 33.1 °F 79% 30.09 in 10.0 mi Calm Calm - N/A   Clear
8:53 AM 46.9 °F - 39.9 °F 77% 30.11 in 10.0 mi Calm Calm - N/A   Clear
9:53 AM 55.0 °F - 39.0 °F 55% 30.10 in 10.0 mi Calm Calm - N/A   Clear
10:53 AM 62.1 °F - 37.0 °F 39% 30.09 in 10.0 mi NNW 3.5 mph - N/A   Clear
11:53 AM 72.0 °F - 36.0 °F 27% 30.06 in 10.0 mi NNW 5.8 mph - N/A   Clear
12:53 PM 79.0 °F - 34.0 °F 20% 30.03 in 10.0 mi Calm Calm - N/A   Clear
1:53 PM 84.0 °F - 32.0 °F 15% 29.99 in 10.0 mi Calm Calm - N/A   Clear
2:53 PM 88.0 °F - 30.0 °F 12% 29.96 in 10.0 mi Variable 4.6 mph - N/A   Clear
3:53 PM 87.1 °F - 28.0 °F 12% 29.96 in 10.0 mi North - - N/A   Clear
4:53 PM 87.1 °F - 28.0 °F 12% 29.95 in 10.0 mi East 8.1 mph - N/A   Clear
5:53 PM 82.9 °F - 28.0 °F 14% 29.96 in 10.0 mi East 6.9 mph - N/A   Clear
6:53 PM 73.9 °F - 30.0 °F 20% 29.97 in 10.0 mi Variable 4.6 mph - N/A   Clear
7:53 PM 66.0 °F - 30.0 °F 26% 30.00 in 10.0 mi North 5.8 mph - N/A   Clear
8:53 PM 64.9 °F - 37.9 °F 37% 30.01 in 10.0 mi NNW 6.9 mph - N/A   Clear
9:53 PM 62.1 °F - 39.9 °F 44% 30.03 in 10.0 mi NNW 4.6 mph - N/A   Clear
10:53 PM 57.9 °F - 37.9 °F 47% 30.03 in 10.0 mi West 3.5 mph - N/A   Clear
11:53 PM 55.9 °F - 41.0 °F 57% 30.04 in 10.0 mi Calm Calm - N/A   Clear